Location: Pouilly
(47.2624°N, 4.5558°E)
Time: 04:45:38
(UTC+00:00)

Cosmos 1980 Rocket - Pass Details

Date: 07 June 2020
Orbit: 828 x 851 km, 71.0° (Epoch: 14 July)

Event Time Altitude Azimuth Distance (km) Brightness Sun altitude
Exits shadow 02:33:19 - 261° (W) 2,985 4.6 -9.9°
Reaches altitude 10° 02:35:12 10° 272° (W) 2,453 4.3 -9.7°
Maximum altitude 02:39:13 20° 318° (NW) 1,876 4.1 -9.3°
Drops below altitude 10° 02:43:16 10° 4° (N) 2,473 5.5 -8.8°
Sets 02:46:27 0° 22° (NNE) 3,417 6.9 -8.4°
